Regional Weather Roundup
Issued by NWS Goodland, KS

Home | Current Version | Previous Version | Graphics & Text | Print | Product List | Glossary On
Versions: 1 2 3 4 5 6 7 8 9 10 11 12 13 14 15 16 17 18 19 20 21 22 23 24 25 26 27 28 29 30 31 32 33 34 35 36 37 38 39 40 41 42 43 44 45 46 47 48 49 50
455
ASUS43 KGLD 251059
RWRGLD

GOODLAND FORECAST AREA HOURLY WEATHER ROUNDUP
NATIONAL WEATHER SERVICE GOODLAND KS
500 AM MDT WED MAY 25 2016

...OFFICIAL OBSERVATIONS...

CITY           SKY/WX    TMP DP  RH WIND       PRES   REMARKS
GOODLAND KS    CLOUDY    56  56 100 NE17G25   29.86R FOG
HILL CITY KS   CLOUDY    62  56  80 N14       29.85R
IMPERIAL NEB   CLOUDY    58  49  72 N7        29.90R
MCCOOK NEB     CLOUDY    59  54  83 E9        29.86R
AKRON CO       CLOUDY    54  51  90 E8        29.91R
BURLINGTON CO  CLOUDY    56  54  93 N8        29.87R
LIMON CO       MOCLDY    50  48  93 NW6       29.94R
$$

...UNOFFICIAL OBSERVATIONS...

CITY           SKY/WX    TMP DP  RH WIND       PRES   REMARKS
COLBY KS       CLOUDY    57  57 100 NE13G21   29.86R
GOVE KS          N/A     63  32  31 MISG        N/A
LENORA KS        N/A     60  32  34 MISG        N/A
NORTON KS      CLOUDY    61  52  72 N9        29.87S
SHARON SPRINGS   N/A     51  49  93 NW16        N/A
TRIBUNE KS     CLEAR     52  46  82 W12       29.83R
KIT CARSON CO    N/A     51  46  82 CALM        N/A
YUMA CO          N/A     56  53  89 E12         N/A
$$




USA.gov is the U.S. government's official web portal to all federal, state and local government web resources and services.